This is the latest recevied weather packets stored in our database for station/object KE0LFX. If no packets are shown the sender has not sent any weather packets the latest 10 day(s).
| Time | Temp. | Humidity | Pressure | Rain* | Wind** | Luminosity | Snow |
|---|---|---|---|---|---|---|---|
| 1776953256 | 20° C | 81% | 1012.7 hPa | 0 mm | - | 119 W/m² | - |
| 1776952955 | 19.44° C | 82% | 1012.4 hPa | 0 mm | - | 152 W/m² | - |
| 1776952653 | 19.44° C | 83% | 1012.7 hPa | 0 mm | - | 98 W/m² | - |
| 1776952348 | 19.44° C | 83% | 1012.7 hPa | 0 mm | - | 87 W/m² | - |
| 1776952046 | 18.89° C | 84% | 1012.9 hPa | 0 mm | - | 95 W/m² | - |
| 1776951742 | 18.89° C | 84% | 1012.8 hPa | 0 mm | - | 79 W/m² | - |
| 1776951438 | 18.89° C | 85% | 1012.9 hPa | 0 mm | - | 86 W/m² | - |
| 1776951135 | 18.33° C | 86% | 1012.8 hPa | 0 mm | - | 73 W/m² | - |
| 1776950832 | 18.33° C | 87% | 1012.9 hPa | 0 mm | - | 72 W/m² | - |
| 1776950527 | 17.78° C | 87% | 1013 hPa | 0 mm | - | 73 W/m² | - |
| 1776950226 | 17.78° C | 88% | 1013.1 hPa | 0 mm | - | 63 W/m² | - |
| 1776949924 | 17.78° C | 88% | 1013 hPa | 0 mm | - | 64 W/m² | - |
| 1776949620 | 17.22° C | 89% | 1013 hPa | 0 mm | - | 58 W/m² | - |
| 1776949316 | 17.22° C | 89% | 1012.7 hPa | 0 mm | - | 53 W/m² | - |
| 1776949011 | 17.22° C | 89% | 1012.7 hPa | 0 mm | - | 51 W/m² | - |
| 1776948707 | 16.67° C | 90% | 1012.8 hPa | 0 mm | - | 52 W/m² | - |
| 1776948404 | 16.67° C | 90% | 1013 hPa | 0 mm | - | 51 W/m² | - |
| 1776948104 | 16.67° C | 91% | 1013.2 hPa | 0 mm | - | 48 W/m² | - |
| 1776947799 | 16.67° C | 91% | 1013.4 hPa | 0 mm | - | 47 W/m² | - |
| 1776947495 | 16.11° C | 92% | 1013.4 hPa | 0 mm | - | 47 W/m² | - |
| 1776947192 | 16.11° C | 92% | 1013.1 hPa | 0 mm | - | 41 W/m² | - |
| 1776946889 | 15.56° C | 93% | 1013.5 hPa | 0 mm | - | 39 W/m² | - |
| 1776946585 | 15.56° C | 93% | 1013.3 hPa | 0 mm | - | 36 W/m² | - |
| 1776946282 | 15.56° C | 93% | 1013.7 hPa | 0 mm | - | 35 W/m² | - |
| 1776945980 | 15° C | 94% | 1013.2 hPa | 0 mm | - | 32 W/m² | - |
* Rain latest hour (hover to see other rain measurements)
** Current wind speed in m/s (hover to see current wind gust speed)